Time,TemperatureF,DewpointF,PressureIn,WindDirection,WindDirectionDegrees,WindSpeedMPH,WindSpeedGustMPH,Humidity,HourlyPrecipIn,Conditions,Clouds,dailyrainin,SolarRadiationWatts/m^2,SoftwareType,DateUTC
2013-03-22 00:00:00,35.8,34.0,30.25,SE,130,4.0,4.0,93,0.00,,,0.18,0,Wunderground v.1.15,2013-03-22 07:00:00,
2013-03-22 00:10:00,35.5,33.7,30.25,SSE,157,4.0,5.0,93,0.00,,,0.00,0,Wunderground v.1.15,2013-03-22 07:10:00,
2013-03-22 00:20:00,35.3,33.7,30.25,SSE,150,4.0,4.0,94,0.00,,,0.00,0,Wunderground v.1.15,2013-03-22 07:20:00,
2013-03-22 00:25:00,35.3,33.7,30.25,SSE,148,3.0,4.0,94,0.00,,,0.01,0,Wunderground v.1.15,2013-03-22 07:25:00,
2013-03-22 00:35:00,35.3,33.7,30.25,ESE,115,2.0,5.0,94,0.00,,,0.01,0,Wunderground v.1.15,2013-03-22 07:35:00,
2013-03-22 00:45:00,35.5,33.9,30.25,SE,146,3.0,4.0,94,0.00,,,0.01,0,Wunderground v.1.15,2013-03-22 07:45:00,
2013-03-22 00:55:00,35.6,34.0,30.24,South,183,3.0,5.0,94,0.00,,,0.02,0,Wunderground v.1.15,2013-03-22 07:55:00,
2013-03-22 01:00:00,35.7,34.1,30.25,SSW,200,2.0,2.0,94,0.00,,,0.02,0,Wunderground v.1.15,2013-03-22 08:00:00,
2013-03-22 01:10:00,35.6,33.8,30.25,SSE,148,2.0,2.0,93,0.00,,,0.02,0,Wunderground v.1.15,2013-03-22 08:10:00,
2013-03-22 01:15:00,35.6,33.8,30.25,SE,136,1.0,2.0,93,0.00,,,0.02,0,Wunderground v.1.15,2013-03-22 08:15:00,
2013-03-22 01:25:00,35.6,33.8,30.25,ESE,122,3.0,5.0,93,0.00,,,0.02,0,Wunderground v.1.15,2013-03-22 08:25:00,
2013-03-22 01:30:00,35.7,33.9,30.25,SSE,167,3.0,3.0,93,0.00,,,0.02,0,Wunderground v.1.15,2013-03-22 08:30:00,
2013-03-22 01:35:00,35.6,33.5,30.25,SSE,153,3.0,3.0,92,0.00,,,0.02,0,Wunderground v.1.15,2013-03-22 08:35:00,
2013-03-22 01:45:00,35.5,33.4,30.25,SE,132,3.0,4.0,92,0.00,,,0.02,0,Wunderground v.1.15,2013-03-22 08:45:00,
2013-03-22 01:55:00,35.6,33.5,30.25,SE,143,4.0,4.0,92,0.00,,,0.02,0,Wunderground v.1.15,2013-03-22 08:55:00,
2013-03-22 02:00:00,35.6,33.5,30.25,South,169,3.0,3.0,92,0.00,,,0.02,0,Wunderground v.1.15,2013-03-22 09:00:00,
2013-03-22 02:10:00,35.8,33.4,30.25,SE,143,3.0,4.0,91,0.00,,,0.02,0,Wunderground v.1.15,2013-03-22 09:10:00,
2013-03-22 02:20:00,35.8,33.4,30.25,SSE,163,5.0,5.0,91,0.00,,,0.02,0,Wunderground v.1.15,2013-03-22 09:20:00,
2013-03-22 02:30:00,35.7,33.3,30.25,South,187,4.0,4.0,91,0.00,,,0.02,0,Wunderground v.1.15,2013-03-22 09:30:00,
2013-03-22 02:35:00,35.7,33.1,30.26,South,186,3.0,6.0,90,0.00,,,0.02,0,Wunderground v.1.15,2013-03-22 09:35:00,
2013-03-22 02:40:00,35.8,32.9,30.26,SSW,207,4.0,4.0,89,0.00,,,0.02,0,Wunderground v.1.15,2013-03-22 09:40:00,
2013-03-22 02:45:00,35.9,33.0,30.26,SSW,208,4.0,4.0,89,0.00,,,0.02,0,Wunderground v.1.15,2013-03-22 09:45:00,
2013-03-22 02:55:00,35.9,32.7,30.25,SSW,194,4.0,4.0,88,0.00,,,0.02,0,Wunderground v.1.15,2013-03-22 09:55:00,
2013-03-22 03:00:00,35.8,32.6,30.25,SW,221,3.0,3.0,88,0.00,,,0.02,0,Wunderground v.1.15,2013-03-22 10:00:00,
2013-03-22 03:10:00,35.7,32.5,30.25,South,175,4.0,5.0,88,0.00,,,0.02,0,Wunderground v.1.15,2013-03-22 10:10:00,
2013-03-22 03:15:00,35.8,32.6,30.26,South,169,4.0,5.0,88,0.00,,,0.02,0,Wunderground v.1.15,2013-03-22 10:15:00,
2013-03-22 03:20:00,35.9,32.7,30.25,SSE,153,4.0,4.0,88,0.00,,,0.02,0,Wunderground v.1.15,2013-03-22 10:20:00,
2013-03-22 03:30:00,36.1,32.6,30.26,SSE,148,3.0,5.0,87,0.00,,,0.02,0,Wunderground v.1.15,2013-03-22 10:30:00,
2013-03-22 03:40:00,36.1,32.3,30.25,SSW,211,3.0,3.0,86,0.00,,,0.02,0,Wunderground v.1.15,2013-03-22 10:40:00,
2013-03-22 03:45:00,36.2,32.4,30.25,SSE,167,2.0,3.0,86,0.00,,,0.02,0,Wunderground v.1.15,2013-03-22 10:45:00,
2013-03-22 03:55:00,36.2,32.4,30.26,SE,135,3.0,3.0,86,0.00,,,0.02,0,Wunderground v.1.15,2013-03-22 10:55:00,
2013-03-22 04:00:00,36.3,32.5,30.26,SSW,192,4.0,5.0,86,0.00,,,0.03,0,Wunderground v.1.15,2013-03-22 11:00:00,
2013-03-22 04:10:00,36.5,32.4,30.26,South,173,5.0,5.0,85,0.00,,,0.03,0,Wunderground v.1.15,2013-03-22 11:10:00,
2013-03-22 04:20:00,36.6,32.5,30.26,SSW,202,4.0,4.0,85,0.00,,,0.03,0,Wunderground v.1.15,2013-03-22 11:20:00,
2013-03-22 04:30:00,36.6,32.5,30.26,WSW,254,2.0,2.0,85,0.00,,,0.03,0,Wunderground v.1.15,2013-03-22 11:30:00,
2013-03-22 04:35:00,36.6,32.5,30.27,WNW,291,2.0,2.0,85,0.00,,,0.03,0,Wunderground v.1.15,2013-03-22 11:35:00,
2013-03-22 04:40:00,36.5,32.4,30.27,SW,232,1.0,2.0,85,0.00,,,0.03,0,Wunderground v.1.15,2013-03-22 11:40:00,
2013-03-22 04:45:00,36.5,32.7,30.27,NW,305,1.0,2.0,86,0.00,,,0.03,0,Wunderground v.1.15,2013-03-22 11:45:00,
2013-03-22 04:50:00,36.4,32.6,30.27,SW,219,1.0,2.0,86,0.00,,,0.03,0,Wunderground v.1.15,2013-03-22 11:50:00,
2013-03-22 05:00:00,36.4,32.6,30.27,SSE,155,1.0,1.0,86,0.00,,,0.03,0,Wunderground v.1.15,2013-03-22 12:00:00,
2013-03-22 05:10:00,36.4,32.6,30.27,SE,134,2.0,2.0,86,0.00,,,0.03,0,Wunderground v.1.15,2013-03-22 12:10:00,
2013-03-22 05:15:00,36.4,32.3,30.27,SE,132,2.0,2.0,85,0.00,,,0.03,0,Wunderground v.1.15,2013-03-22 12:15:00,
2013-03-22 05:20:00,36.4,32.3,30.27,SE,132,1.0,1.0,85,0.00,,,0.03,0,Wunderground v.1.15,2013-03-22 12:20:00,
2013-03-22 05:30:00,36.4,32.3,30.27,SE,132,1.0,2.0,85,0.00,,,0.03,0,Wunderground v.1.15,2013-03-22 12:30:00,
2013-03-22 05:35:00,36.4,32.3,30.28,SSE,155,2.0,6.0,85,0.00,,,0.03,0,Wunderground v.1.15,2013-03-22 12:35:00,
2013-03-22 05:40:00,36.4,32.6,30.28,South,171,3.0,3.0,86,0.00,,,0.03,0,Wunderground v.1.15,2013-03-22 12:40:00,
2013-03-22 05:45:00,36.3,32.8,30.28,SSE,150,3.0,6.0,87,0.00,,,0.03,0,Wunderground v.1.15,2013-03-22 12:45:00,
2013-03-22 05:50:00,36.2,32.4,30.28,SSE,152,4.0,8.0,86,0.00,,,0.03,0,Wunderground v.1.15,2013-03-22 12:50:00,
2013-03-22 05:55:00,36.3,32.5,30.28,South,178,5.0,8.0,86,0.00,,,0.03,0,Wunderground v.1.15,2013-03-22 12:55:00,
2013-03-22 06:00:00,36.3,32.5,30.28,SSE,152,6.0,6.0,86,0.00,,,0.03,0,Wunderground v.1.15,2013-03-22 13:00:00,
2013-03-22 06:10:00,36.3,32.5,30.28,SSE,157,5.0,6.0,86,0.00,,,0.03,0,Wunderground v.1.15,2013-03-22 13:10:00,
2013-03-22 06:20:00,36.4,32.6,30.28,SE,144,4.0,5.0,86,0.00,,,0.03,0,Wunderground v.1.15,2013-03-22 13:20:00,
2013-03-22 06:25:00,36.3,32.5,30.28,SE,146,4.0,5.0,86,0.00,,,0.03,0,Wunderground v.1.15,2013-03-22 13:25:00,
2013-03-22 06:35:00,36.0,32.5,30.28,SE,130,6.0,7.0,87,0.00,,,0.03,0,Wunderground v.1.15,2013-03-22 13:35:00,
2013-03-22 06:40:00,35.9,32.4,30.28,SSE,157,7.0,7.0,87,0.00,,,0.03,0,Wunderground v.1.15,2013-03-22 13:40:00,
2013-03-22 06:45:00,35.9,32.4,30.28,West,259,6.0,7.0,87,0.00,,,0.03,0,Wunderground v.1.15,2013-03-22 13:45:00,
2013-03-22 06:50:00,35.9,32.4,30.29,SE,126,6.0,6.0,87,0.00,,,0.03,0,Wunderground v.1.15,2013-03-22 13:50:00,
2013-03-22 07:00:00,35.8,32.3,30.29,SSE,152,4.0,4.0,87,0.00,,,0.03,0,Wunderground v.1.15,2013-03-22 14:00:00,
2013-03-22 07:10:00,35.9,32.7,30.29,ESE,119,2.0,2.0,88,0.00,,,0.03,0,Wunderground v.1.15,2013-03-22 14:10:00,
2013-03-22 07:20:00,35.9,32.7,30.30,ESE,119,1.0,2.0,88,0.00,,,0.03,7,Wunderground v.1.15,2013-03-22 14:20:00,
2013-03-22 07:30:00,35.9,32.7,30.30,ESE,121,2.0,2.0,88,0.00,,,0.03,11,Wunderground v.1.15,2013-03-22 14:30:00,
2013-03-22 07:40:00,36.0,33.1,30.30,ESE,121,1.0,1.0,89,0.00,,,0.03,18,Wunderground v.1.15,2013-03-22 14:40:00,
2013-03-22 07:50:00,35.9,33.0,30.30,NNW,328,1.0,1.0,89,0.00,,,0.03,16,Wunderground v.1.15,2013-03-22 14:50:00,
2013-03-22 07:55:00,35.9,33.0,30.31,NNW,328,2.0,2.0,89,0.00,,,0.03,12,Wunderground v.1.15,2013-03-22 14:55:00,
2013-03-22 08:00:00,36.1,32.9,30.31,NNW,328,1.0,1.0,88,0.00,,,0.03,16,Wunderground v.1.15,2013-03-22 15:00:00,
2013-03-22 08:10:00,36.3,33.1,30.31,NNW,328,1.0,1.0,88,0.00,,,0.03,18,Wunderground v.1.15,2013-03-22 15:10:00,
2013-03-22 08:20:00,36.2,33.3,30.31,NNW,328,1.0,2.0,89,0.00,,,0.03,21,Wunderground v.1.15,2013-03-22 15:20:00,
2013-03-22 08:25:00,35.9,33.3,30.31,North,360,2.0,2.0,90,0.00,,,0.03,23,Wunderground v.1.15,2013-03-22 15:25:00,
2013-03-22 08:30:00,35.9,33.5,30.32,North,360,1.0,2.0,91,0.00,,,0.03,28,Wunderground v.1.15,2013-03-22 15:30:00,
2013-03-22 08:35:00,35.7,33.3,30.32,North,360,1.0,2.0,91,0.00,,,0.04,30,Wunderground v.1.15,2013-03-22 15:35:00,
2013-03-22 08:40:00,35.6,33.2,30.32,North,360,1.0,1.0,91,0.00,,,0.04,32,Wunderground v.1.15,2013-03-22 15:40:00,
2013-03-22 08:45:00,35.5,33.4,30.32,North,360,1.0,1.0,92,0.00,,,0.04,25,Wunderground v.1.15,2013-03-22 15:45:00,
2013-03-22 08:55:00,35.6,33.5,30.32,North,360,0.0,1.0,92,0.00,,,0.04,51,Wunderground v.1.15,2013-03-22 15:55:00,
2013-03-22 09:00:00,35.6,33.5,30.32,North,360,1.0,1.0,92,0.00,,,0.04,105,Wunderground v.1.15,2013-03-22 16:00:00,
2013-03-22 09:10:00,35.6,33.5,30.33,North,360,2.0,2.0,92,0.00,,,0.04,125,Wunderground v.1.15,2013-03-22 16:10:00,
2013-03-22 09:15:00,35.7,33.6,30.33,North,360,1.0,2.0,92,0.00,,,0.04,118,Wunderground v.1.15,2013-03-22 16:15:00,
2013-03-22 09:25:00,35.9,33.8,30.33,North,360,1.0,1.0,92,0.00,,,0.04,86,Wunderground v.1.15,2013-03-22 16:25:00,
2013-03-22 09:30:00,36.1,34.0,30.33,North,360,1.0,2.0,92,0.00,,,0.04,79,Wunderground v.1.15,2013-03-22 16:30:00,
2013-03-22 09:35:00,36.1,33.7,30.33,North,360,0.0,2.0,91,0.00,,,0.04,83,Wunderground v.1.15,2013-03-22 16:35:00,
2013-03-22 09:40:00,36.3,34.2,30.33,North,360,0.0,0.0,92,0.00,,,0.04,91,Wunderground v.1.15,2013-03-22 16:40:00,
2013-03-22 09:50:00,36.4,34.0,30.33,North,360,1.0,1.0,91,0.00,,,0.04,139,Wunderground v.1.15,2013-03-22 16:50:00,
2013-03-22 09:55:00,36.6,34.2,30.33,North,360,1.0,1.0,91,0.00,,,0.04,178,Wunderground v.1.15,2013-03-22 16:55:00,
2013-03-22 10:00:00,36.8,34.4,30.33,North,360,1.0,1.0,91,0.00,,,0.04,288,Wunderground v.1.15,2013-03-22 17:00:00,
2013-03-22 10:10:00,37.3,34.9,30.33,North,360,0.0,1.0,91,0.00,,,0.04,299,Wunderground v.1.15,2013-03-22 17:10:00,
2013-03-22 10:15:00,37.7,35.3,30.33,North,360,1.0,2.0,91,0.00,,,0.04,292,Wunderground v.1.15,2013-03-22 17:15:00,
2013-03-22 10:25:00,37.6,34.4,30.34,NNW,347,2.0,3.0,88,0.00,,,0.04,267,Wunderground v.1.15,2013-03-22 17:25:00,
2013-03-22 10:30:00,37.7,34.5,30.34,NNE,24,2.0,2.0,88,0.00,,,0.04,297,Wunderground v.1.15,2013-03-22 17:30:00,
2013-03-22 10:40:00,37.9,34.4,30.34,NNW,335,2.0,2.0,87,0.00,,,0.04,246,Wunderground v.1.15,2013-03-22 17:40:00,
2013-03-22 10:50:00,38.9,35.1,30.34,NE,42,1.0,4.0,86,0.00,,,0.04,285,Wunderground v.1.15,2013-03-22 17:50:00,
2013-03-22 11:00:00,39.1,34.7,30.34,North,360,2.0,2.0,84,0.00,,,0.04,677,Wunderground v.1.15,2013-03-22 18:00:00,
2013-03-22 11:10:00,40.1,34.7,30.34,North,360,1.0,1.0,81,0.00,,,0.04,763,Wunderground v.1.15,2013-03-22 18:10:00,
2013-03-22 11:20:00,41.6,35.6,30.34,SE,140,1.0,1.0,79,0.00,,,0.04,810,Wunderground v.1.15,2013-03-22 18:20:00,
2013-03-22 11:25:00,42.7,35.7,30.34,ESE,119,1.0,1.0,76,0.00,,,0.04,847,Wunderground v.1.15,2013-03-22 18:25:00,
2013-03-22 11:30:00,43.2,35.8,30.34,NNW,343,1.0,1.0,75,0.00,,,0.04,339,Wunderground v.1.15,2013-03-22 18:30:00,
2013-03-22 11:35:00,43.1,35.7,30.34,NNW,346,2.0,2.0,75,0.00,,,0.04,691,Wunderground v.1.15,2013-03-22 18:35:00,
2013-03-22 11:45:00,41.4,33.4,30.34,NW,315,3.0,5.0,73,0.00,,,0.04,853,Wunderground v.1.15,2013-03-22 18:45:00,
2013-03-22 11:50:00,41.7,34.7,30.34,NNW,346,3.0,3.0,76,0.00,,,0.04,283,Wunderground v.1.15,2013-03-22 18:50:00,
2013-03-22 11:55:00,41.8,34.8,30.34,NNW,346,2.0,3.0,76,0.00,,,0.04,323,Wunderground v.1.15,2013-03-22 18:55:00,
2013-03-22 12:00:00,42.1,35.1,30.34,NNW,344,2.0,6.0,76,0.00,,,0.04,366,Wunderground v.1.15,2013-03-22 19:00:00,
2013-03-22 12:10:00,41.2,34.5,30.34,North,5,3.0,3.0,77,0.00,,,0.04,183,Wunderground v.1.15,2013-03-22 19:10:00,
2013-03-22 12:15:00,40.9,34.2,30.34,NNW,332,3.0,3.0,77,0.00,,,0.04,169,Wunderground v.1.15,2013-03-22 19:15:00,
2013-03-22 12:20:00,40.7,33.7,30.34,NNW,344,3.0,3.0,76,0.00,,,0.04,176,Wunderground v.1.15,2013-03-22 19:20:00,
2013-03-22 12:30:00,41.2,33.9,30.34,North,355,1.0,3.0,75,0.00,,,0.04,761,Wunderground v.1.15,2013-03-22 19:30:00,
2013-03-22 12:40:00,43.4,34.3,30.34,SE,130,1.0,2.0,70,0.00,,,0.04,972,Wunderground v.1.15,2013-03-22 19:40:00,
2013-03-22 12:50:00,43.2,33.0,30.34,NW,315,3.0,5.0,67,0.00,,,0.04,225,Wunderground v.1.15,2013-03-22 19:50:00,
2013-03-22 12:55:00,42.6,32.8,30.34,NNW,327,3.0,5.0,68,0.00,,,0.04,130,Wunderground v.1.15,2013-03-22 19:55:00,
2013-03-22 13:00:00,42.3,33.2,30.34,NNW,346,3.0,4.0,70,0.00,,,0.04,130,Wunderground v.1.15,2013-03-22 20:00:00,
2013-03-22 13:10:00,42.0,31.8,30.34,North,355,2.0,2.0,67,0.00,,,0.04,211,Wunderground v.1.15,2013-03-22 20:10:00,
2013-03-22 13:15:00,42.0,32.2,30.34,NNW,343,2.0,2.0,68,0.00,,,0.04,227,Wunderground v.1.15,2013-03-22 20:15:00,
2013-03-22 13:20:00,42.3,32.8,30.34,North,11,2.0,2.0,69,0.00,,,0.04,842,Wunderground v.1.15,2013-03-22 20:20:00,
2013-03-22 13:30:00,43.5,34.0,30.34,NNW,329,3.0,7.0,69,0.00,,,0.04,761,Wunderground v.1.15,2013-03-22 20:30:00,
2013-03-22 13:35:00,43.1,34.7,30.34,NNW,331,5.0,7.0,72,0.00,,,0.04,209,Wunderground v.1.15,2013-03-22 20:35:00,
2013-03-22 13:40:00,42.7,33.9,30.34,North,5,6.0,6.0,71,0.00,,,0.04,202,Wunderground v.1.15,2013-03-22 20:40:00,
2013-03-22 13:45:00,42.2,33.8,30.34,NNW,331,5.0,6.0,72,0.00,,,0.04,174,Wunderground v.1.15,2013-03-22 20:45:00,
2013-03-22 13:50:00,42.1,34.4,30.34,North,5,4.0,4.0,74,0.00,,,0.04,176,Wunderground v.1.15,2013-03-22 20:50:00,
2013-03-22 13:55:00,41.7,33.0,30.34,ENE,72,3.0,4.0,71,0.00,,,0.04,169,Wunderground v.1.15,2013-03-22 20:55:00,
2013-03-22 14:00:00,41.5,32.4,30.34,ENE,60,3.0,3.0,70,0.00,,,0.04,193,Wunderground v.1.15,2013-03-22 21:00:00,
2013-03-22 14:10:00,41.9,33.2,30.34,NE,43,1.0,1.0,71,0.00,,,0.04,141,Wunderground v.1.15,2013-03-22 21:10:00,
2013-03-22 14:15:00,42.1,33.0,30.34,SE,138,2.0,3.0,70,0.00,,,0.04,118,Wunderground v.1.15,2013-03-22 21:15:00,
2013-03-22 14:25:00,42.2,32.8,30.33,ESE,113,2.0,5.0,69,0.00,,,0.04,339,Wunderground v.1.15,2013-03-22 21:25:00,
2013-03-22 14:30:00,42.3,33.9,30.33,SE,138,3.0,5.0,72,0.00,,,0.04,714,Wunderground v.1.15,2013-03-22 21:30:00,
2013-03-22 14:35:00,42.5,33.8,30.34,SE,128,4.0,5.0,71,0.00,,,0.04,712,Wunderground v.1.15,2013-03-22 21:35:00,
2013-03-22 14:40:00,43.1,33.3,30.34,SSE,157,4.0,4.0,68,0.00,,,0.04,712,Wunderground v.1.15,2013-03-22 21:40:00,
2013-03-22 14:45:00,43.4,33.2,30.33,SSE,152,4.0,6.0,67,0.00,,,0.04,735,Wunderground v.1.15,2013-03-22 21:45:00,
2013-03-22 14:50:00,43.8,33.6,30.33,South,172,3.0,4.0,67,0.00,,,0.04,722,Wunderground v.1.15,2013-03-22 21:50:00,
2013-03-22 15:00:00,45.6,33.3,30.33,South,178,2.0,3.0,62,0.00,,,0.04,715,Wunderground v.1.15,2013-03-22 22:00:00,
2013-03-22 15:10:00,46.2,32.7,30.33,SSE,165,3.0,3.0,59,0.00,,,0.04,722,Wunderground v.1.15,2013-03-22 22:10:00,
2013-03-22 15:20:00,46.7,33.1,30.33,East,85,2.0,2.0,59,0.00,,,0.04,749,Wunderground v.1.15,2013-03-22 22:20:00,
2013-03-22 15:30:00,45.2,32.9,30.33,North,5,4.0,4.0,62,0.00,,,0.04,162,Wunderground v.1.15,2013-03-22 22:30:00,
2013-03-22 15:35:00,45.0,32.8,30.33,East,88,3.0,4.0,62,0.00,,,0.04,197,Wunderground v.1.15,2013-03-22 22:35:00,
2013-03-22 15:40:00,45.1,32.8,30.33,NNE,30,3.0,3.0,62,0.00,,,0.04,547,Wunderground v.1.15,2013-03-22 22:40:00,
2013-03-22 15:50:00,44.7,33.6,30.33,ESE,108,4.0,4.0,65,0.00,,,0.04,619,Wunderground v.1.15,2013-03-22 22:50:00,
2013-03-22 15:55:00,44.6,32.8,30.33,SSE,155,5.0,5.0,63,0.00,,,0.04,236,Wunderground v.1.15,2013-03-22 22:55:00,
2013-03-22 16:00:00,44.8,32.2,30.33,ESE,118,5.0,5.0,61,0.00,,,0.04,610,Wunderground v.1.15,2013-03-22 23:00:00,
2013-03-22 16:10:00,45.4,32.7,30.33,SE,136,4.0,4.0,61,0.00,,,0.04,582,Wunderground v.1.15,2013-03-22 23:10:00,
2013-03-22 16:20:00,45.8,31.9,30.33,NNE,14,3.0,4.0,58,0.00,,,0.04,213,Wunderground v.1.15,2013-03-22 23:20:00,
2013-03-22 16:25:00,45.6,32.1,30.33,NE,50,4.0,5.0,59,0.00,,,0.04,304,Wunderground v.1.15,2013-03-22 23:25:00,
2013-03-22 16:35:00,45.7,31.8,30.34,NE,41,5.0,5.0,58,0.00,,,0.04,446,Wunderground v.1.15,2013-03-22 23:35:00,
2013-03-22 16:40:00,45.5,31.1,30.34,NNE,27,5.0,6.0,57,0.00,,,0.04,227,Wunderground v.1.15,2013-03-22 23:40:00,
2013-03-22 16:45:00,45.2,31.7,30.34,NNW,346,4.0,6.0,59,0.00,,,0.04,524,Wunderground v.1.15,2013-03-22 23:45:00,
2013-03-22 16:50:00,45.4,31.9,30.34,NE,53,3.0,3.0,59,0.00,,,0.04,192,Wunderground v.1.15,2013-03-22 23:50:00,
2013-03-22 17:00:00,44.7,33.3,30.35,East,98,3.0,3.0,64,0.00,,,0.04,158,Wunderground v.1.15,2013-03-23 00:00:00,
2013-03-22 17:10:00,44.1,34.6,30.35,East,82,2.0,2.0,69,0.00,,,0.04,364,Wunderground v.1.15,2013-03-23 00:10:00,
2013-03-22 17:15:00,43.9,34.0,30.35,SE,124,3.0,5.0,68,0.00,,,0.04,251,Wunderground v.1.15,2013-03-23 00:15:00,
2013-03-22 17:20:00,43.8,33.9,30.35,SE,137,3.0,3.0,68,0.00,,,0.04,253,Wunderground v.1.15,2013-03-23 00:20:00,
2013-03-22 17:25:00,44.2,33.9,30.35,SE,130,3.0,5.0,67,0.00,,,0.04,258,Wunderground v.1.15,2013-03-23 00:25:00,
2013-03-22 17:30:00,44.2,34.7,30.35,ESE,109,3.0,3.0,69,0.00,,,0.04,202,Wunderground v.1.15,2013-03-23 00:30:00,
2013-03-22 17:40:00,44.2,35.0,30.35,ESE,117,2.0,2.0,70,0.00,,,0.04,102,Wunderground v.1.15,2013-03-23 00:40:00,
2013-03-22 17:45:00,44.1,34.2,30.35,ESE,115,2.0,2.0,68,0.00,,,0.04,88,Wunderground v.1.15,2013-03-23 00:45:00,
2013-03-22 17:50:00,44.0,34.1,30.35,ESE,120,2.0,2.0,68,0.00,,,0.04,67,Wunderground v.1.15,2013-03-23 00:50:00,
2013-03-22 18:00:00,43.9,34.0,30.35,ESE,120,1.0,1.0,68,0.00,,,0.04,146,Wunderground v.1.15,2013-03-23 01:00:00,
2013-03-22 18:10:00,43.5,32.9,30.35,SE,125,2.0,3.0,66,0.00,,,0.04,54,Wunderground v.1.15,2013-03-23 01:10:00,
2013-03-22 18:15:00,43.4,33.2,30.35,SE,125,2.0,3.0,67,0.00,,,0.04,105,Wunderground v.1.15,2013-03-23 01:15:00,
2013-03-22 18:20:00,43.5,33.3,30.35,SE,126,1.0,1.0,67,0.00,,,0.04,104,Wunderground v.1.15,2013-03-23 01:20:00,
2013-03-22 18:25:00,43.7,33.1,30.35,SE,126,1.0,1.0,66,0.00,,,0.04,63,Wunderground v.1.15,2013-03-23 01:25:00,
2013-03-22 18:30:00,44.0,33.0,30.35,SE,125,0.0,0.0,65,0.00,,,0.04,91,Wunderground v.1.15,2013-03-23 01:30:00,
2013-03-22 18:40:00,44.0,32.6,30.35,SE,125,1.0,1.0,64,0.00,,,0.04,56,Wunderground v.1.15,2013-03-23 01:40:00,
2013-03-22 18:50:00,43.9,34.0,30.35,SE,125,1.0,1.0,68,0.00,,,0.04,32,Wunderground v.1.15,2013-03-23 01:50:00,
2013-03-22 18:55:00,43.6,34.8,30.35,SE,125,1.0,2.0,71,0.00,,,0.04,26,Wunderground v.1.15,2013-03-23 01:55:00,
2013-03-22 19:00:00,43.2,34.8,30.35,SE,125,1.0,1.0,72,0.00,,,0.04,21,Wunderground v.1.15,2013-03-23 02:00:00,
2013-03-22 19:10:00,42.3,34.6,30.35,SE,125,0.0,0.0,74,0.00,,,0.04,14,Wunderground v.1.15,2013-03-23 02:10:00,
2013-03-22 19:20:00,41.6,34.6,30.35,SSE,161,1.0,2.0,76,0.00,,,0.04,7,Wunderground v.1.15,2013-03-23 02:20:00,
2013-03-22 19:30:00,41.0,34.7,30.35,SSE,161,1.0,1.0,78,0.00,,,0.04,0,Wunderground v.1.15,2013-03-23 02:30:00,
2013-03-22 19:35:00,40.6,34.6,30.35,SSE,163,1.0,1.0,79,0.00,,,0.04,0,Wunderground v.1.15,2013-03-23 02:35:00,
2013-03-22 19:45:00,39.8,34.1,30.35,South,184,1.0,3.0,80,0.00,,,0.04,0,Wunderground v.1.15,2013-03-23 02:45:00,
2013-03-22 19:50:00,39.5,34.2,30.35,South,185,2.0,2.0,81,0.00,,,0.04,0,Wunderground v.1.15,2013-03-23 02:50:00,
2013-03-22 19:55:00,39.2,33.9,30.35,South,185,1.0,3.0,81,0.00,,,0.04,0,Wunderground v.1.15,2013-03-23 02:55:00,
2013-03-22 20:00:00,38.8,33.8,30.36,South,185,2.0,2.0,82,0.00,,,0.04,0,Wunderground v.1.15,2013-03-23 03:00:00,
2013-03-22 20:10:00,38.5,33.8,30.36,South,180,3.0,3.0,83,0.00,,,0.04,0,Wunderground v.1.15,2013-03-23 03:10:00,
2013-03-22 20:20:00,38.0,33.6,30.37,SSE,151,2.0,2.0,84,0.00,,,0.04,0,Wunderground v.1.15,2013-03-23 03:20:00,
2013-03-22 20:30:00,37.5,33.4,30.37,SSE,151,2.0,3.0,85,0.00,,,0.04,0,Wunderground v.1.15,2013-03-23 03:30:00,
2013-03-22 20:40:00,37.0,33.2,30.37,SSE,151,1.0,1.0,86,0.00,,,0.04,0,Wunderground v.1.15,2013-03-23 03:40:00,
2013-03-22 20:50:00,36.5,33.0,30.38,SSE,151,1.0,2.0,87,0.00,,,0.04,0,Wunderground v.1.15,2013-03-23 03:50:00,
2013-03-22 21:00:00,36.2,32.7,30.38,SSE,151,1.0,1.0,87,0.00,,,0.04,0,Wunderground v.1.15,2013-03-23 04:00:00,
2013-03-22 21:10:00,35.9,32.7,30.39,SSE,151,1.0,1.0,88,0.00,,,0.04,0,Wunderground v.1.15,2013-03-23 04:10:00,
2013-03-22 21:15:00,35.7,32.5,30.39,SSE,151,1.0,1.0,88,0.00,,,0.04,0,Wunderground v.1.15,2013-03-23 04:15:00,
2013-03-22 21:20:00,35.6,32.4,30.39,SSE,151,1.0,1.0,88,0.00,,,0.04,0,Wunderground v.1.15,2013-03-23 04:20:00,
2013-03-22 21:25:00,35.4,32.2,30.39,SSE,151,1.0,1.0,88,0.00,,,0.04,0,Wunderground v.1.15,2013-03-23 04:25:00,
2013-03-22 21:30:00,35.2,32.3,30.39,SSE,151,1.0,1.0,89,0.00,,,0.04,0,Wunderground v.1.15,2013-03-23 04:30:00,
2013-03-22 21:40:00,34.9,32.0,30.40,SSE,151,1.0,1.0,89,0.00,,,0.04,0,Wunderground v.1.15,2013-03-23 04:40:00,
2013-03-22 21:50:00,34.5,31.6,30.40,SSE,151,1.0,1.0,89,0.00,,,0.04,0,Wunderground v.1.15,2013-03-23 04:50:00,
2013-03-22 21:55:00,34.4,31.8,30.40,SSE,151,1.0,1.0,90,0.00,,,0.04,0,Wunderground v.1.15,2013-03-23 04:55:00,
2013-03-22 22:00:00,34.2,31.3,30.40,SSE,151,0.0,0.0,89,0.00,,,0.04,0,Wunderground v.1.15,2013-03-23 05:00:00,
2013-03-22 22:10:00,33.8,31.2,30.40,SSE,151,0.0,0.0,90,0.00,,,0.04,0,Wunderground v.1.15,2013-03-23 05:10:00,
2013-03-22 22:20:00,33.2,30.6,30.40,SSE,151,0.0,0.0,90,0.00,,,0.04,0,Wunderground v.1.15,2013-03-23 05:20:00,
2013-03-22 22:30:00,33.0,30.7,30.40,SSE,151,0.0,0.0,91,0.00,,,0.04,0,Wunderground v.1.15,2013-03-23 05:30:00,
2013-03-22 22:40:00,32.6,30.3,30.40,SSE,151,1.0,1.0,91,0.00,,,0.04,0,Wunderground v.1.15,2013-03-23 05:40:00,
2013-03-22 22:45:00,32.5,30.2,30.40,SSE,151,1.0,2.0,91,0.00,,,0.04,0,Wunderground v.1.15,2013-03-23 05:45:00,
2013-03-22 22:50:00,32.4,30.1,30.40,SSE,151,1.0,1.0,91,0.00,,,0.04,0,Wunderground v.1.15,2013-03-23 05:50:00,
2013-03-22 22:55:00,32.3,30.0,30.40,SSE,151,0.0,1.0,91,0.00,,,0.04,0,Wunderground v.1.15,2013-03-23 05:55:00,
2013-03-22 23:00:00,32.1,29.8,30.39,SSE,151,0.0,0.0,91,0.00,,,0.04,0,Wunderground v.1.15,2013-03-23 06:00:00,
2013-03-22 23:10:00,31.9,29.8,30.39,SSE,151,1.0,1.0,92,0.00,,,0.04,0,Wunderground v.1.15,2013-03-23 06:10:00,
2013-03-22 23:15:00,31.7,29.6,30.40,SSE,151,1.0,1.0,92,0.00,,,0.04,0,Wunderground v.1.15,2013-03-23 06:15:00,
2013-03-22 23:20:00,31.6,29.5,30.40,SSE,151,1.0,1.0,92,0.00,,,0.04,0,Wunderground v.1.15,2013-03-23 06:20:00,
2013-03-22 23:25:00,31.6,29.5,30.40,SSE,151,1.0,1.0,92,0.00,,,0.04,0,Wunderground v.1.15,2013-03-23 06:25:00,
2013-03-22 23:35:00,31.5,29.4,30.40,SSE,151,0.0,0.0,92,0.00,,,0.04,0,Wunderground v.1.15,2013-03-23 06:35:00,
2013-03-22 23:40:00,31.4,29.3,30.40,SSE,151,0.0,1.0,92,0.00,,,0.04,0,Wunderground v.1.15,2013-03-23 06:40:00,
2013-03-22 23:50:00,31.2,29.1,30.40,SSE,151,0.0,0.0,92,0.00,,,0.04,0,Wunderground v.1.15,2013-03-23 06:50:00,